Location: Bercimuel
(41.3983°N, 3.5711°W)
Time: 20:52:51
(UTC+00:00)

Cosmos 1833 - Pass Details

Date: 15 May 2026
Orbit: 833 x 865 km, 70.9° (Epoch: 8 June)

Event Time Altitude Azimuth Distance (km) Brightness Sun altitude
Exits shadow 21:44:10 38° 169° (S) 1,267 4.6 -20.7°
Maximum altitude 21:46:09 59° 109° (ESE) 968 4.2 -20.9°
Drops below altitude 10° 21:51:41 10° 31° (NNE) 2,457 6.9 -21.5°
Sets 21:54:09 0° 28° (NNE) 3,392 7.7 -21.8°
